STARLINK-36724

Last updated on Wed Mar 25 2026 00:02:05 GMT+0000 (Coordinated Universal Time)

1 67914U 26036L 26083.50002314 -.01863314 00000+0 -52816-1 0 9998 2 67914 42.9989 161.5495 0001295 294.4214 220.1558 15.38858295 6029
UTC large
Height (km)
Speed (km/s)
/
Latitude / Longitude
Inclination (degrees)
Orbital Period (minutes)
Azimuth
Elevation
Range (km)
Doppler Factor

Next 0 passes for location: London (51.5072 / 0.1276)

Sorry there are no passes over London.